Terug naar catalogus

ARIANE 44L DEB

ActiefHEO
NORAD 24741·DEBRIS·🇫🇷 France

Gelanceerd Jan 15, 1991 vanaf Guiana Space Centre

Loading…

Volgende Passages (komende 24 uur)

TLE

VersSource: Space-Track

Epoch: Sep 14, 2026, 14:14 UTC

1 24741U 91003H   26257.59347442 -.00000269  00000-0 -38939-2 0  9994
2 24741   6.4082 136.6978 6804826 296.9693 297.4991  2.65549829202115

Volg ARIANE 44L DEB in realtime met AllMySat

Download on the App Store